Starlink 30978

operational
NORAD ID: 58490 Int'l Des: 2023-186 Owner: SPXS Country: US Constellation: starlink
LEOCIRCULAR

About Starlink 30978

Description loading...

Live Position

Loading 3D Globe...

Upcoming Passes

Altitude History

Altitude vs Time

uPlot chart will show altitude changes over time

Two-Line Element Set

1 58490U 23186T 25259.12089503 .00000788 00000-0 73408-4 0 9996
2 58490 43.0037 295.8519 0001586 271.3703 88.6958 15.02538124 99583
Epoch: Sep 16, 2025 • Age: 13 hours

Current Status

Altitude 560.0 km
Velocity 7.58 km/s
Sub-Earth Point -8.49°S, 53.83°E
Launch Date Dec 3, 2023
Age 1.7 years
Type internet

Technical Details

Classification Payload
Mass 730.00 kg
Dry Mass 700.00 kg
Total Mass 730.00 kg
Length 0.30 m
Diameter 4.10 m
Span 29.00 m
Shape Box + pan
Manufacturer SPXS
Bus Type Starlink V2M
Phase Status In Orbit
Owner/State SPXS/US

Large Constellations

Loading constellations...